Weather History for KHEI - February, 2013

Change the Weather History Date:

Wednesday, February 13, 2013

  Actual Average Record
Temperature  
Mean Temperature 39 °F -  
Max Temperature 47 °F 31 °F 57 °F (1999)
Min Temperature 30 °F 9 °F -8 °F (2001)
Degree Days  
Heating Degree Days 26 45  
Month to date heating degree days 455 597  
Since 1 July heating degree days 5343 5673  
Moisture  
Dew Point 26 °F    
Average Humidity 67    
Maximum Humidity 82    
Minimum Humidity 49    
Precipitation  
Precipitation T in 0.01 in 0.05 in (2014)
Month to date precipitation 0.03 0.23  
Year to date precipitation 0.06 0.54  
Sea Level Pressure  
Sea Level Pressure 29.76 in    
Wind  
Wind Speed 19 mph (WNW)    
Max Wind Speed 40 mph    
Max Gust Speed 48 mph    
Visibility 10 miles    
Events Snow    
T = Trace of Precipitation, MM = Missing Value Source: NWS Daily Summary

Daily Weather History Graph

Daily Weather History Graph

Search for Another Location

Airport or City:

Trip Planner

Search our weather history database for the weather conditions in past years. The results will help you decide how hot, cold, wet, or windy it might be!

Date:

Astronomy

Feb. 13, 2013 Rise Set
Actual Time 6:55 AM MST 5:14 PM MST
Civil Twilight 6:25 AM MST 5:45 PM MST
Nautical Twilight 5:50 AM MST 6:20 PM MST
Astronomical Twilight 5:15 AM MST 6:55 PM MST
Moon 8:11 AM MST (2/13) 9:36 PM MST (2/13)
Length of Visible Light 11h 20m
Length of Day
10h 18m
Waxing Crescent, 14% of the Moon is Illuminated
Feb 13
Waxing Crescent
Feb 17
First Quarter
Feb 25
Full
Mar 4
Last Quarter
Mar 11
New

Hourly Weather History & Observations

Time (MST) Temp. Windchill Dew Point Humidity Pressure Visibility Wind Dir Wind Speed Gust Speed Precip Events Conditions
12:53 AM 32.0 °F 24.2 °F 24.1 °F 73% 29.83 in 10.0 mi West 9.2 mph - N/A   Overcast
1:53 AM 33.1 °F 26.9 °F 24.1 °F 70% 29.81 in 10.0 mi West 6.9 mph - N/A   Overcast
2:53 AM 33.1 °F 24.9 °F 24.1 °F 70% 29.77 in 10.0 mi West 10.4 mph - N/A   Overcast
3:53 AM 33.1 °F 25.5 °F 24.1 °F 70% 29.75 in 10.0 mi West 9.2 mph - N/A   Scattered Clouds
4:53 AM 34.0 °F 25.0 °F 23.0 °F 64% 29.74 in 10.0 mi West 12.7 mph - N/A   Overcast
5:53 AM 35.1 °F 25.9 °F 23.0 °F 61% 29.73 in 10.0 mi West 13.8 mph - N/A   Overcast
6:53 AM 36.0 °F 27.5 °F 27.0 °F 70% 29.71 in 10.0 mi West 12.7 mph - N/A   Overcast
7:53 AM 37.0 °F 27.0 °F 24.1 °F 59% 29.70 in 10.0 mi West 18.4 mph 26.5 mph N/A   Scattered Clouds
8:53 AM 39.9 °F 30.5 °F 27.0 °F 60% 29.68 in 10.0 mi West 19.6 mph 35.7 mph N/A   Overcast
9:03 AM 39.2 °F 27.2 °F 28.4 °F 65% 29.62 in 10.0 mi WNW 31.1 mph 40.3 mph N/A   Overcast
9:36 AM 41.0 °F 29.3 °F 28.4 °F 61% 29.62 in 10.0 mi WNW 33.4 mph 42.6 mph N/A   Partly Cloudy
9:53 AM 42.1 °F 31.3 °F 28.9 °F 60% 29.67 in 10.0 mi WNW 29.9 mph 42.6 mph N/A   Clear
10:53 AM 46.0 °F 36.4 °F 28.0 °F 50% 29.68 in 10.0 mi WNW 32.2 mph 44.9 mph N/A   Partly Cloudy
11:53 AM 44.1 °F 33.5 °F 28.9 °F 55% 29.69 in 9.0 mi WNW 33.4 mph 41.4 mph N/A   Partly Cloudy
12:53 PM 43.0 °F 32.5 °F 28.9 °F 58% 29.71 in 10.0 mi WNW 29.9 mph 39.1 mph N/A   Clear
1:41 PM 35.6 °F - 32.0 °F 87% 29.70 in 4.0 mi North - - 0.00 in Snow Light Snow
1:53 PM 36.0 °F - 30.9 °F 82% 29.75 in 9.0 mi North - - 0.00 in   Overcast
2:53 PM 42.1 °F 32.6 °F 30.0 °F 62% 29.74 in 10.0 mi WNW 23.0 mph 33.4 mph N/A   Clear
3:53 PM 41.0 °F 30.9 °F 28.0 °F 60% 29.76 in 10.0 mi WNW 24.2 mph 36.8 mph N/A   Clear
4:53 PM 37.0 °F 26.4 °F 27.0 °F 67% 29.79 in 10.0 mi WNW 20.7 mph 29.9 mph N/A   Clear
5:53 PM 36.0 °F 25.3 °F 27.0 °F 70% 29.82 in 10.0 mi NW 19.6 mph 27.6 mph N/A   Clear
6:53 PM 35.1 °F 23.5 °F 26.1 °F 70% 29.83 in 10.0 mi NW 21.9 mph 32.2 mph N/A   Clear
7:46 PM 33.8 °F 22.8 °F 26.6 °F 75% 29.80 in 10.0 mi NW 18.4 mph - N/A   Mostly Cloudy
7:53 PM 34.0 °F 23.0 °F 26.1 °F 73% 29.86 in 10.0 mi NW 18.4 mph 26.5 mph N/A   Mostly Cloudy
8:11 PM 33.8 °F 23.5 °F 26.6 °F 75% 29.80 in 10.0 mi WNW 16.1 mph - N/A   Scattered Clouds
8:53 PM 33.1 °F 21.9 °F 26.1 °F 75% 29.86 in 10.0 mi WNW 18.4 mph 25.3 mph N/A   Clear
9:53 PM 32.0 °F 20.8 °F 25.0 °F 75% 29.88 in 10.0 mi WNW 17.3 mph - N/A   Clear
10:53 PM 32.0 °F 19.2 °F 21.9 °F 66% 29.89 in 10.0 mi WNW 23.0 mph 32.2 mph N/A   Scattered Clouds
11:53 PM 30.9 °F 18.7 °F 19.0 °F 61% 29.91 in 10.0 mi WNW 19.6 mph 28.8 mph N/A   Clear